Wind_Speed
14 16 19 23 26 27 31 35 36 36 39 40 40 42 43 43 45 45 46 46 45 44 45 46 46 46 46 45 45 45 44 43 43 42 41 41 40 40 40 39 38 37 37 37
12 14 15 19 22 23 27 31 34 35 34 37 39 39 41 41 43 43 44 46 45 45 45 46 46 46 46 46 47 46 46 45 44 44 43 44 44 43 42 41 41 41 40 40
10 11 12 15 18 20 23 27 31 32 33 34 37 38 37 38 39 41 41 43 45 45 45 45 46 46 46 46 46 47 47 47 47 46 46 45 45 45 44 43 43 42 42 42
8 8 9 12 14 17 18 22 25 29 31 32 34 35 36 37 38 39 40 41 43 44 45 45 45 46 47 47 47 48 48 48 49 49 48 48 48 47 46 46 45 45 45 45
6 7 8 9 11 14 15 19 22 25 28 31 33 34 35 36 37 38 39 40 41 43 44 44 46 47 47 48 48 49 49 49 50 50 50 49 49 49 49 48 48 48 47 47
5 5 6 8 9 11 13 16 18 22 24 27 28 32 33 34 35 36 37 38 40 42 43 44 45 46 46 47 48 49 49 49 50 50 50 51 50 50 49 50 50 49 49 49
3 4 5 7 9 10 12 15 17 20 23 24 25 29 29 30 33 35 36 37 39 41 42 43 44 44 45 46 47 48 49 49 50 50 51 51 51 51 50 50 50 49 49 49
2 3 4 6 8 10 12 15 18 20 22 23 25 27 27 28 30 33 35 36 38 39 40 41 42 43 44 45 45 46 47 49 49 50 50 51 51 52 52 52 51 51 51 51
2 4 5 6 8 10 12 14 17 20 21 23 24 25 25 25 28 31 33 34 35 37 39 40 41 42 43 44 44 45 46 48 49 50 50 50 51 51 51 52 52 51 50 50
3 4 6 7 9 10 12 14 16 18 21 23 24 24 24 25 27 29 31 32 33 35 38 39 41 41 41 43 44 44 45 46 47 48 49 49 50 50 51 52 52 51 51 50
3 4 6 8 10 12 14 15 16 18 20 22 23 23 24 25 26 28 29 31 31 33 35 38 40 41 40 41 42 43 44 44 45 46 48 48 49 49 50 51 51 51 51 50
4 4 5 8 10 12 14 16 17 19 20 22 24 22 23 26 27 29 30 31 32 32 34 35 37 39 40 40 41 42 43 43 43 44 45 46 47 47 48 49 49 49 49 49
7 7 7 8 10 13 15 17 19 20 21 23 24 23 24 27 28 30 31 32 33 34 34 35 36 38 39 40 41 41 42 43 43 43 43 44 45 45 45 46 46 46 46 47
9 8 9 10 11 13 15 17 18 20 21 23 23 24 25 27 28 30 32 34 34 34 34 35 36 37 38 39 39 40 41 42 43 43 43 44 44 44 44 44 44 45 45 45
11 10 11 11 12 13 14 17 19 21 22 23 23 24 25 27 28 30 31 32 33 34 34 35 36 36 37 38 39 39 40 41 42 42 42 42 42 42 42 43 43 43 44 44
13 13 13 12 14 15 15 17 19 21 23 24 25 25 26 27 29 30 30 31 32 33 34 35 37 37 37 38 38 39 39 40 41 42 42 41 41 41 41 41 41 42 42 43
15 16 16 15 15 16 16 17 19 21 23 24 25 26 27 27 28 29 29 30 31 32 33 34 36 37 37 38 38 38 38 39 40 41 41 41 41 41 41 41 41 41 42 42
16 18 19 19 19 18 19 20 20 21 22 24 25 25 26 26 26 27 28 29 30 31 31 32 34 35 35 36 37 37 37 38 39 39 40 40 40 40 41 41 40 40 40 40
18 19 21 21 21 20 20 20 21 22 22 23 24 24 24 25 26 25 27 28 29 29 29 30 31 32 33 34 35 36 36 37 37 38 38 38 39 39 39 39 39 39 39 39
18 21 22 23 23 21 21 21 21 22 22 23 24 24 24 24 24 24 26 27 28 28 28 29 30 31 31 32 33 34 34 35 35 36 37 37 38 37 37 37 37 37 37 37
20 22 23 24 24 22 23 22 22 22 23 24 24 25 24 23 23 24 25 25 27 27 27 27 28 30 30 31 32 33 33 33 34 34 35 36 37 36 36 36 36 36 36 36
20 22 24 25 25 24 25 24 24 24 25 24 25 25 25 24 24 25 26 26 26 26 26 27 27 28 29 29 30 31 32 32 32 33 33 34 35 35 35 36 35 35 35 35
21 23 25 25 26 27 27 26 25 26 26 26 26 26 26 25 25 25 26 26 26 26 26 26 27 27 27 28 28 29 30 31 31 31 32 32 33 33 34 34 34 34 34 34
22 24 25 26 27 28 28 28 27 26 27 26 27 27 26 26 26 26 27 27 27 26 26 26 26 25 25 26 27 28 28 29 30 30 31 31 32 32 33 33 33 33 33 33
23 25 26 27 28 29 30 30 29 27 28 28 28 28 27 27 26 26 26 26 26 26 26 25 25 25 25 25 26 27 27 28 29 29 29 30 31 32 32 32 32 32 32 33
25 26 27 28 29 30 31 31 30 28 28 28 28 27 27 27 26 25 24 25 25 26 26 25 25 25 25 26 26 26 26 27 28 29 29 29 30 31 31 32 32 32 32 32
Wind_Direction
150 167 180 192 197 200 203 205 206 206 208 212 215 217 217 218 219 223 226 228 229 229 230 231 232 234 236 238 240 241 242 244 245 247 249 252 254 257 259 259 261 263 264 265
147 160 174 191 197 203 207 209 211 211 213 216 217 219 222 220 221 223 226 228 229 230 230 232 234 235 237 240 241 242 244 245 247 248 251 252 254 256 258 260 261 263 264 265
148 160 173 186 195 202 208 213 217 218 220 223 223 222 221 220 223 225 225 227 230 232 233 234 236 237 239 240 241 243 244 246 248 250 250 252 254 256 257 259 261 263 264 265
145 154 172 187 197 201 207 212 219 223 227 229 232 231 225 226 229 230 230 231 232 234 236 236 237 238 239 241 242 243 245 247 249 250 251 252 255 256 258 260 262 264 264 265
132 146 164 182 199 206 212 217 223 227 231 235 238 240 233 234 234 233 233 233 233 235 237 238 238 239 240 242 243 245 246 248 249 251 253 254 256 258 259 261 262 263 265 266
143 161 170 185 201 212 217 221 226 231 234 238 239 244 242 241 240 238 237 236 235 237 239 241 241 241 242 242 244 245 247 249 250 252 254 255 257 259 260 261 262 264 264 265
150 174 178 190 200 207 218 224 227 232 236 241 242 246 246 246 245 245 244 243 241 240 242 243 244 244 244 245 245 246 247 248 250 251 253 255 257 258 260 261 262 263 264 265
190 199 208 212 217 222 230 234 237 239 241 245 246 249 249 248 248 247 247 247 246 245 244 244 245 245 245 246 247 247 248 249 250 251 253 255 257 258 259 261 262 263 265 266
230 228 232 229 232 236 237 239 243 247 248 250 252 252 252 254 253 250 248 248 247 246 244 243 244 245 247 247 248 248 249 250 251 253 254 256 257 258 260 261 262 264 265 267
271 256 250 244 239 239 240 242 247 251 255 257 258 259 258 257 256 253 250 249 247 247 246 244 243 244 246 247 247 248 249 250 251 252 253 255 257 258 259 260 262 263 265 266
312 281 264 256 246 244 246 249 252 257 260 262 262 264 261 260 258 255 252 251 250 248 247 247 247 246 246 247 247 248 249 250 251 252 253 254 256 258 258 259 261 262 263 264
346 322 287 270 258 250 251 252 254 260 262 263 265 266 265 262 258 255 253 251 250 249 247 247 247 246 247 247 247 247 248 250 251 252 253 254 256 257 259 260 262 263 264 265
344 331 310 289 272 260 256 257 260 262 266 267 268 270 267 263 259 256 254 251 248 247 247 246 245 245 246 247 247 247 248 249 251 252 254 255 257 258 259 260 261 262 264 265
343 335 320 305 288 271 264 264 265 266 268 270 271 270 267 265 261 258 256 253 252 251 249 247 245 244 245 246 247 248 248 249 250 251 253 254 256 257 258 259 261 262 264 266
339 333 325 313 297 283 273 270 269 269 268 270 274 273 270 266 262 260 258 256 255 253 251 248 246 246 246 246 247 248 249 249 249 250 252 254 254 256 257 259 260 262 264 266
337 332 328 318 305 295 287 281 276 273 272 274 274 275 273 269 266 264 261 258 256 254 253 251 249 247 247 249 249 249 250 250 250 251 252 253 254 255 256 258 260 261 263 264
334 332 330 324 315 304 295 288 284 282 279 280 280 279 276 272 270 267 264 261 259 255 254 253 252 251 249 249 250 251 251 251 251 252 253 254 255 256 257 259 260 261 262 263
332 331 329 326 320 306 303 293 287 288 288 285 284 282 279 274 272 268 266 263 261 257 255 255 254 253 252 251 252 252 252 252 253 253 253 255 256 257 258 259 260 261 262 263
330 330 328 327 323 315 306 300 296 294 295 292 290 287 283 277 273 267 264 263 261 260 257 256 256 254 253 253 253 253 254 254 253 253 253 254 256 257 258 259 260 262 263 265
328 329 328 328 325 320 314 306 302 299 299 297 294 291 287 281 275 269 265 264 262 261 259 258 257 256 254 254 254 254 255 255 254 253 253 254 255 257 258 259 260 262 263 265
327 328 328 328 327 325 319 310 305 303 301 298 296 294 289 284 276 272 268 266 264 263 262 262 260 258 257 256 255 255 255 254 253 253 254 254 255 256 258 259 261 262 264 265
326 327 327 328 328 326 321 313 305 302 301 298 296 294 290 285 280 274 270 267 264 264 263 263 262 260 259 258 256 255 254 254 254 254 254 255 256 256 258 259 261 262 264 266
323 325 325 327 328 327 324 318 310 304 302 299 296 294 290 286 282 278 273 268 267 264 264 266 265 263 261 259 258 256 254 254 254 255 255 256 257 257 258 260 261 263 264 266
320 323 325 326 326 325 325 320 313 306 304 300 298 295 291 288 284 280 274 270 268 266 266 267 267 265 261 259 258 257 256 255 256 256 256 256 257 258 260 261 263 263 264 265
318 322 324 325 325 324 325 322 316 308 304 303 300 295 292 290 286 282 276 273 271 268 266 267 266 266 264 262 260 260 259 257 257 257 257 257 257 259 260 262 263 264 264 265
317 321 322 322 323 323 324 323 319 313 308 305 303 296 292 290 286 282 279 276 274 272 268 267 265 265 266 265 263 262 260 259 258 259 259 258 259 260 261 261 263 264 265 266
Height
5658 5661 5664 5668 5672 5677 5682 5686 5691 5697 5703 5708 5714 5720 5726 5731 5737 5743 5749 5754 5760 5766 5771 5775 5780 5784 5788 5792 5796 5799 5803 5806 5808 5811 5814 5816 5819 5821 5823 5824 5825 5826 5827 5827
5662 5663 5666 5669 5673 5677 5681 5685 5690 5695 5700 5705 5710 5715 5720 5726 5731 5737 5742 5747 5753 5758 5763 5768 5772 5776 5780 5784 5788 5791 5795 5797 5800 5803 5805 5808 5810 5812 5814 5815 5817 5818 5818 5819
5664 5667 5668 5671 5673 5677 5681 5685 5689 5693 5697 5701 5706 5711 5716 5721 5726 5730 5736 5741 5746 5751 5756 5760 5765 5769 5773 5776 5780 5783 5786 5789 5792 5794 5797 5799 5801 5803 5805 5806 5808 5808 5809 5810
5667 5668 5670 5672 5675 5677 5681 5684 5687 5691 5695 5699 5703 5707 5713 5716 5720 5725 5730 5735 5739 5743 5748 5752 5756 5761 5764 5768 5771 5774 5778 5780 5783 5785 5787 5790 5792 5794 5796 5797 5798 5798 5799 5800
5670 5671 5672 5674 5676 5678 5681 5683 5686 5690 5693 5696 5699 5702 5709 5711 5715 5720 5724 5728 5732 5736 5740 5743 5748 5752 5755 5758 5762 5765 5768 5771 5773 5775 5778 5780 5782 5784 5786 5787 5788 5788 5789 5789
5671 5672 5673 5674 5676 5678 5680 5683 5685 5687 5690 5693 5696 5698 5703 5707 5710 5714 5717 5721 5724 5728 5731 5735 5738 5742 5745 5749 5752 5755 5758 5761 5763 5765 5767 5770 5772 5773 5775 5776 5777 5778 5778 5779
5672 5673 5673 5675 5676 5678 5680 5682 5684 5685 5687 5690 5692 5693 5699 5701 5703 5706 5709 5713 5716 5719 5723 5726 5729 5732 5736 5739 5742 5745 5748 5750 5753 5755 5757 5759 5761 5762 5764 5765 5766 5767 5767 5768
5672 5673 5674 5674 5676 5677 5678 5680 5682 5683 5684 5686 5687 5688 5694 5695 5696 5698 5701 5704 5707 5710 5713 5717 5720 5723 5726 5728 5731 5734 5737 5739 5741 5744 5746 5748 5749 5751 5753 5754 5755 5756 5756 5757
5672 5673 5673 5673 5674 5675 5676 5677 5679 5679 5680 5681 5682 5684 5687 5688 5689 5691 5693 5695 5698 5701 5704 5707 5710 5713 5715 5718 5720 5723 5726 5728 5730 5732 5734 5736 5738 5739 5741 5742 5743 5744 5745 5745
5671 5671 5671 5671 5672 5673 5673 5674 5675 5675 5675 5675 5677 5678 5681 5681 5682 5683 5685 5687 5689 5691 5694 5697 5700 5703 5705 5707 5710 5712 5715 5717 5719 5721 5723 5725 5726 5727 5729 5730 5731 5732 5733 5733
5670 5670 5670 5669 5669 5669 5670 5671 5671 5671 5671 5671 5671 5675 5674 5675 5675 5676 5677 5678 5680 5682 5684 5687 5689 5692 5694 5697 5699 5701 5704 5706 5708 5709 5711 5713 5714 5716 5717 5718 5719 5720 5721 5721
5669 5668 5667 5667 5666 5666 5666 5667 5667 5667 5667 5666 5665 5669 5668 5668 5667 5668 5669 5670 5671 5673 5674 5676 5679 5681 5684 5686 5688 5690 5693 5694 5696 5698 5700 5701 5703 5704 5705 5706 5707 5708 5709 5709
5667 5667 5665 5664 5665 5663 5662 5662 5661 5661 5661 5660 5659 5662 5660 5660 5659 5659 5660 5661 5661 5663 5665 5667 5669 5671 5673 5675 5677 5679 5681 5683 5685 5687 5689 5690 5691 5693 5694 5695 5695 5696 5697 5698
5665 5664 5663 5662 5659 5658 5657 5657 5656 5655 5654 5653 5653 5653 5653 5651 5650 5650 5650 5650 5651 5653 5655 5657 5658 5660 5662 5664 5666 5668 5670 5672 5674 5676 5677 5679 5680 5681 5682 5683 5684 5685 5685 5686
5662 5661 5659 5657 5655 5653 5652 5652 5650 5649 5648 5646 5646 5645 5644 5642 5641 5641 5641 5641 5642 5643 5645 5647 5648 5650 5652 5654 5656 5658 5659 5661 5663 5665 5666 5668 5669 5670 5671 5672 5673 5673 5674 5674
5659 5658 5655 5653 5650 5648 5647 5646 5644 5642 5640 5639 5638 5637 5635 5633 5632 5632 5632 5632 5633 5634 5635 5637 5638 5640 5641 5643 5645 5647 5649 5650 5652 5654 5655 5657 5658 5659 5660 5661 5662 5663 5663 5663
5657 5654 5652 5649 5646 5643 5642 5640 5637 5635 5633 5632 5630 5630 5626 5625 5624 5623 5623 5623 5623 5624 5625 5626 5628 5630 5631 5633 5635 5636 5638 5640 5641 5643 5645 5646 5647 5648 5649 5650 5651 5652 5652 5653
5653 5650 5647 5644 5642 5639 5639 5634 5631 5628 5626 5624 5622 5620 5618 5616 5615 5614 5614 5614 5614 5615 5616 5617 5618 5619 5621 5623 5624 5626 5628 5629 5631 5632 5634 5635 5636 5637 5638 5639 5640 5641 5641 5642
5649 5646 5643 5639 5636 5633 5631 5628 5624 5622 5620 5617 5614 5612 5610 5608 5607 5607 5605 5605 5605 5606 5606 5607 5609 5610 5611 5613 5614 5616 5617 5619 5620 5622 5623 5624 5626 5627 5628 5629 5630 5630 5631 5631
5645 5642 5639 5634 5630 5628 5627 5621 5617 5616 5613 5610 5607 5604 5602 5600 5600 5600 5598 5597 5597 5597 5598 5599 5599 5600 5601 5603 5604 5606 5607 5609 5610 5611 5613 5614 5615 5617 5618 5619 5619 5620 5620 5621
5641 5637 5634 5629 5625 5622 5619 5615 5612 5610 5608 5603 5600 5597 5595 5593 5592 5591 5590 5590 5589 5589 5589 5590 5590 5591 5592 5593 5594 5596 5597 5599 5600 5601 5603 5604 5605 5607 5608 5609 5609 5610 5610 5611
5636 5633 5629 5624 5620 5619 5612 5608 5606 5603 5599 5595 5592 5590 5588 5586 5584 5583 5582 5581 5581 5581 5581 5581 5581 5582 5583 5584 5585 5586 5588 5589 5590 5592 5593 5594 5596 5597 5598 5599 5599 5600 5600 5601
5631 5628 5624 5621 5618 5611 5606 5602 5598 5594 5591 5588 5585 5583 5580 5578 5576 5575 5574 5573 5573 5573 5573 5573 5573 5573 5573 5574 5576 5577 5578 5579 5581 5582 5583 5585 5586 5587 5588 5589 5590 5590 5591 5591
5626 5622 5618 5614 5610 5605 5600 5595 5591 5587 5583 5580 5577 5574 5572 5569 5567 5566 5565 5565 5565 5565 5565 5564 5564 5563 5564 5565 5567 5568 5569 5571 5572 5573 5574 5575 5576 5577 5578 5579 5580 5580 5581 5581
5621 5616 5612 5608 5604 5599 5594 5589 5584 5580 5576 5572 5569 5565 5562 5560 5558 5557 5556 5556 5556 5557 5557 5556 5556 5556 5557 5558 5559 5560 5561 5562 5563 5564 5565 5566 5567 5568 5569 5570 5570 5571 5571 5571
5615 5611 5607 5603 5598 5594 5589 5582 5577 5572 5568 5564 5561 5557 5554 5551 5550 5549 5549 5549 5549 5549 5549 5549 5549 5549 5550 5550 5551 5552 5552 5553 5554 5555 5556 5557 5558 5558 5559 5560 5561 5561 5561 5561